Regional Weather Roundup
Issued by NWS

Home | Current Version | Previous Version | Text Only | Print | Product List | Glossary On
Versions: 1 2 3 4 5 6 7 8 9 10 11 12 13 14 15 16 17 18 19 20 21 22 23 24 25 26 27 28 29 30 31 32 33 34 35 36 37 38 39 40 41 42 43 44 45 46 47 48 49 50
963
ASUS43 KDTX 220210
RWRMI
MICHIGAN HOURLY REGIONAL WEATHER ROUNDUP
NATIONAL WEATHER SERVICE DETROIT/PONTIAC MI
1000 PM EDT MON MAY 21 2018

NOTE: "FAIR" INDICATES FEW OR NO CLOUDS BELOW 12,000 FEET WITH NO
SIGNIFICANT WEATHER AND/OR OBSTRUCTION TO VISIBILITY.

MIZ047>049-052>055-059>063-066>070-074>076-081>083-220300-
SOUTHEAST LOWER MICHIGAN

CITY           SKY/WX    TMP DP  RH WIND       PRES   REMARKS
ADRIAN         LGT RAIN  54  52  93 E6        30.07F
ALMA           CLOUDY    54  51  90 CALM      30.08S
ANN ARBOR      CLOUDY    52  48  86 E5        30.07F
BAD AXE        CLOUDY    51  44  78 E5        30.09F
CARO           CLOUDY    58  47  69 CALM      30.06S
DETROIT CITY   LGT RAIN  53  47  79 E8        30.07F
DETROIT        CLOUDY    54  46  74 CALM      30.07F
FLINT          CLOUDY    55  47  74 SE9       30.06S
GROSSE ILE     CLOUDY    53  48  83 CALM      30.07F
HILLSDALE      CLOUDY    54  52  94 E6        30.06R FOG
HOWELL         LGT RAIN  52  47  84 SE6       30.06S

CITY           SKY/WX    TMP DP  RH WIND       PRES   REMARKS
JACKSON        CLOUDY    53  51  93 E6        30.06S
LAMBERTVILLE   CLOUDY    58  52  81 E5        30.06F
LANSING        LGT RAIN  53  52  96 SE6       30.06F FOG
LAPEER         CLOUDY    59  38  44 SE9G16    30.07S
MASON          LGT RAIN  53  50  89 SE6       30.07R
MONROE         CLOUDY    54  52  94 E3        30.06F
MT. CLEMENS    LGT RAIN  56  54  94 NE6       30.07F
PONTIAC        CLOUDY    53  48  83 E7        30.05F
PORT HOPE        N/A     50  44  80 SE3       30.08F
PORT HURON     CLOUDY    50  46  87 CALM      30.09S
TRI CITIES     LGT RAIN  56  53  90 NE6       30.09R
MIDLAND        CLOUDY    52  49  88 CALM      30.07F
TROY           CLOUDY    56  45  67 E12       30.09F
SAGINAW HB     CLOUDY    57  48  72 NW6       30.07R
$$
MIZ043>046-050>051-056>058-064>065-071>073-077>080-220300-
SOUTHWEST LOWER MICHIGAN

CITY           SKY/WX    TMP DP  RH WIND       PRES   REMARKS
BATTLE CREEK   LGT RAIN  56  54  93 SE6       30.04F
BENTON HARBOR  MOCLDY    59  57  93 SE8       30.00S
BIG RAPIDS     LGT RAIN  51  48  91 E5        30.06F
COLDWATER      LGT RAIN  56  56  97 E7        30.05S
FREMONT        DRIZZLE   50  50  99 E7        30.05F
GRAND RAPIDS   LGT RAIN  53  52  96 E8        30.03F FOG
IONIA          CLOUDY    53  52  97 E5        30.05F
KALAMAZOO      CLOUDY    58  55  90 SE3       30.04F
LUDINGTON      CLOUDY    49  49  97 E8        30.05F
MARSHALL       CLOUDY    55  53  95 SE8       30.05S
MOUNT PLEASANT CLOUDY    55  53  92 CALM      30.07S
MUSKEGON       LGT RAIN  52  49  89 E9        30.04S FOG
SOUTH HAVEN    CLOUDY    59  57  94 E6        30.00S
$$
MIZ016>042-220300-
NORTHERN LOWER MICHIGAN

CITY           SKY/WX    TMP DP  RH WIND       PRES   REMARKS
ALPENA         FAIR      56  44  64 CALM      30.12S
BEAVER ISLAND  MOCLDY    54  44  67 CALM      30.09S
BELLAIRE       CLOUDY    55  46  71 CALM      30.10S
CADILLAC       LGT RAIN  49  48  97 E6        30.07F
CHARLEVOIX     CLOUDY    56  43  60 SW3       30.12F
FRANKFORT      CLOUDY    53  49  87 E6        30.07F
GAYLORD        CLOUDY    54  44  69 SE3       30.11S
GRAYLING       LGT RAIN  53  45  73 E3        30.09F
HARBOR SPRINGS FAIR      50  40  68 CALM      30.10R
HOUGHTON LAKE  LGT RAIN  51  47  86 N3        30.09F
MANISTEE       LGT RAIN  51  49  92 E6        30.06F
OSCODA         LGT RAIN  52  43  71 NE5       30.09F
PELLSTON       FAIR      61  40  45 SW3       30.09S
ROGERS CITY    FAIR      59  41  51 S6        30.12S
TRAVERSE CITY  LGT RAIN  54  48  80 NE3       30.07F
$$
MIZ007>008-015-220300-
EASTERN UPPER MICHIGAN

CITY           SKY/WX    TMP DP  RH WIND       PRES   REMARKS
KINROSS        FAIR      59  35  40 SE9       30.08F
MACKINAC ISLAN FAIR      51  42  70 W3        30.08S
NEWBERRY       FAIR      57  42  57 S5        30.07F
S. S. MARIE    FAIR      61  35  37 SE5       30.07F
MUNISING         N/A     60  40  47 S7        30.05F
$$
MIZ004>006-011>014-085-220300-
CENTRAL UPPER MICHIGAN

CITY           SKY/WX    TMP DP  RH WIND       PRES   REMARKS
MANISTIQUE     MOCLDY    51  49  95 CALM      30.07F
ESCANABA       CLOUDY    54  46  74 CALM      30.08F
SAWYER-GWINN   MOCLDY    55  43  62 S9        30.06F
$$
MIZ001>003-009>011-084-220300-
WESTERN UPPER MICHIGAN

CITY           SKY/WX    TMP DP  RH WIND       PRES   REMARKS
IRON MOUNTAIN  CLOUDY    55  47  74 SE8       30.05F
HOUGHTON       FAIR      52  29  41 E7        30.00F
COPPER HARBOR    N/A     55  28  35 SW10G18   29.99F
IRONWOOD       FAIR      61  43  51 S5        30.02S
$$

ABBREVIATIONS USED IN REMARKS
   TC - TEMPERATURE IN CELSIUS
  WCI - WIND CHILL INDEX
   HX - HEAT INDEX
  VSB - VISIBILITY





USA.gov is the U.S. government's official web portal to all federal, state and local government web resources and services.